Location: Kosice
(0.0000°N, 21.2500°E)
Time: 18:25:03
(UTC+01:00)

IRS-1C Rocket - Pass Details

Date: 24 January 2021
Orbit: 801 x 805 km, 99.0° (Epoch: 01 March)

Event Time Altitude Azimuth Distance (km) Brightness Sun altitude
Rises 18:31:20 0° 168° (SSE) 3,311 7.4 -10.4°
Reaches altitude 10° 18:33:40 10° 168° (SSE) 2,378 6.6 -11.0°
Maximum altitude 18:38:56 89° 255° (WSW) 805 4.1 -12.2°
Drops below altitude 10° 18:44:10 10° 347° (NNW) 2,366 6.5 -13.4°
Sets 18:46:29 0° 347° (NNW) 3,293 7.2 -14.0°
